Location: Lecco
(45.8566°N, 9.3977°E)
Time: 05:18:09
(UTC+02:00)

Courier 1B Rocket - Pass Details

Date: 28 August 2019
Orbit: 920 x 1202 km, 28.2° (Epoch: 22 October)

Event Time Altitude Azimuth Distance (km) Brightness Sun altitude
Rises 02:08:25 0° 214° (SSW) 3,716 - -33.4°
Reaches altitude 10° 02:12:46 10° 187° (S) 2,834 - -33.2°
Maximum altitude 02:15:42 13° 162° (SSE) 2,660 - -33.1°
Drops below altitude 10° 02:18:43 10° 137° (SE) 2,928 - -32.9°
Exits shadow 02:22:34 - 115° (ESE) 3,750 8.0 -32.7°
Sets 02:23:21 0° 112° (ESE) 3,955 8.1 -32.7°
